Tracking 19146 objects as of 24-Apr-2018
HD Live streaming from Space Station
objects crossing your sky now

TITAN 3 R/B(2)

Track TITAN 3 R/B(2) now!


NORAD ID: 20669
Int'l Code: 1990-056C
Perigee: 288.2 km
Apogee: 32,993.0 km
Inclination: 24.4 °
Period: 579.0 minutes
Semi major axis: 23011 km
RCS: 6.947 m2 (large)
Launch date: June 23, 1990
Source: United States (US)
Launch site: AIR FORCE EASTERN TEST RANGE (AFETR)

Note: This is a ROCKET BODY
aabbcc
Your satellite tracking list
Your tracking list is empty




NASA's NSSDC Master Catalog

Two Line Element Set (TLE):
1 20669U 90056C   18112.15448181  .00000727  00000-0  42342-3 0  9992
2 20669  24.3925 318.2538 7106162 245.6687  28.0213  2.48704218235092
Source of the keplerian elements: AFSPC